[[{"header":{"parameterUnit":"m.s-1","parameterCategory":1,"la1":30.2991,"la2":30.254,"lo1":-89.0895,"lo2":-89.0444,"dy":0.0017,"dx":0.0017,"nx":28,"ny":28,"refTime":"2025-01-15T09:00:00:Z","depth":0,"parameterNumber":2,"parameterNumberName":"U-component_of_WINDS"},"data":[0,0,0,0,0,0,0,0,0,0,0,0,0,0,0,0,0,0,0,0,0,0,0,0,0,0,0,0,0,0,0,0,0,0,0,0,0,0,0,0,0,0,0,0,0,0,0,0,0,0,0,0,0,0,0,0,0,0,1.4001,1.4002,0,1.4101,1.4102,1.4103,1.414,1.414,1.414,1.4139,1.4244,1.4247,1.425,0,0,0,0,0,0,0,0,0,0,0,0,0,1.3848,1.385,1.4001,1.4002,1.4004,1.41,1.4102,1.4103,1.414,1.414,1.414,1.4139,1.4243,1.4247,1.425,0,0,0,0,0,0,0,0,0,0,0,0,0,1.3927,1.3851,1.4001,1.4034,1.4038,1.41,1.4102,1.4103,1.414,1.414,1.414,1.4139,1.4242,1.4246,1.4251,1.4289,0,0,1.4265,1.4267,0,0,0,0,0,0,0,0,1.3923,1.3933,1.4028,1.4032,1.4036,1.4107,1.4086,1.4166,1.4141,1.4102,1.4139,1.4139,1.4199,1.4207,1.4227,1.4294,1.4298,1.4266,1.4268,1.427,1.4272,0,0,0,0,0,0,0,1.3917,1.3929,1.4041,1.4029,1.4034,1.4045,1.4056,1.4101,1.4152,1.4105,1.4108,1.4119,1.4202,1.4223,1.423,1.43,1.4265,1.4269,1.4272,1.4274,1.4404,1.4404,0,0,0,0,0,0,1.3906,1.3924,1.4037,1.4044,1.3977,1.4048,1.406,1.4085,1.4152,1.4161,1.4119,1.412,1.4215,1.4224,1.4234,1.4283,1.427,1.4275,1.4277,1.4403,1.4404,1.4405,0,0,0,0,0,0,1.3902,1.3915,1.4033,1.3985,1.4,1.4051,1.4079,1.4087,1.4108,1.4162,1.4172,1.4131,1.4215,1.4227,1.4275,1.4287,1.4277,1.4281,1.4402,1.4403,1.4404,1.4381,0,0,0,0,0,0,1.3898,1.3914,1.3928,1.3985,1.4003,1.4072,1.408,1.409,1.4116,1.4118,1.4176,1.4185,1.4215,1.4268,1.4279,1.4293,1.4284,1.4401,1.4403,1.4404,1.4381,1.4381,1.4381,0,0,0,0,0,1.3892,1.3918,1.3928,1.3942,1.4021,1.4072,1.4083,1.4116,1.4117,1.4132,1.4167,1.4183,1.4284,1.4272,1.4286,1.4301,1.4401,1.4402,1.4404,1.4381,1.4381,1.4381,0,0,0,0,0,0,1.3862,1.3926,1.3938,1.3983,1.4022,1.4078,1.4098,1.4115,1.4156,1.4156,1.4197,1.421,1.4254,1.4283,1.4269,1.4342,1.4344,1.4348,1.4322,1.4322,1.4322,1.4315,1.4288,0,0,0,0,0,1.3861,1.3896,1.395,1.3984,1.4003,1.4047,1.4071,1.4093,1.4136,1.4152,1.4191,1.4232,1.4273,1.4299,1.434,1.4385,1.4399,1.4403,1.4403,1.4403,1.4406,1.4433,1.4436,1.441,1.4409,1.4409,0,0,1.3858,1.3897,1.3917,1.3979,1.4012,1.4049,1.4061,1.4099,1.4127,1.4159,1.4206,1.4235,1.4284,1.4331,1.4354,1.4356,1.4416,1.4405,1.4404,1.4408,1.4435,1.4437,1.444,1.4411,1.441,1.441,0,0,1.3872,1.3905,1.3937,1.397,1.4019,1.4048,1.4056,1.4111,1.4131,1.4179,1.4204,1.4238,1.4308,1.4342,1.4368,1.4396,1.4414,1.4408,1.4409,1.4435,1.4437,1.4439,1.445,1.4453,1.4412,1.4412,1.4411,0,1.3863,1.3918,1.3952,1.3989,1.4016,1.4046,1.408,1.411,1.417,1.4189,1.4191,1.4279,1.4314,1.437,1.4376,1.4397,1.4408,1.4402,1.4434,1.4437,1.4439,1.445,1.4453,1.4411,1.4411,1.4411,1.4411,0,1.3905,1.3943,1.3963,1.402,1.4049,1.4085,1.4125,1.4151,1.4171,1.4201,1.425,1.4293,1.4343,1.4358,1.4379,1.4417,1.4417,1.4426,1.4429,1.444,1.4451,1.4455,1.4409,1.441,1.441,1.441,0,0,1.3902,1.3978,1.3985,1.4011,1.4068,1.4098,1.4136,1.4184,1.4206,1.4247,1.428,1.4338,1.4347,1.4377,1.4401,1.4424,1.4444,1.443,1.4432,1.4431,1.449,1.4483,1.4487,1.4456,1.4457,1.4457,1.4486,0,1.3924,1.3991,1.4023,1.4076,1.4112,1.4141,1.4174,1.4213,1.4242,1.4277,1.431,1.4351,1.4359,1.4377,1.4401,1.4436,1.4456,1.4435,1.4488,1.4489,1.4475,1.4493,1.4486,1.4511,1.4491,1.4491,1.4492,0,1.3958,1.3998,1.4054,1.4107,1.4124,1.4152,1.42,1.4233,1.4279,1.4298,1.4332,1.4356,1.4397,1.4397,1.4455,1.444,1.4464,1.4485,1.4487,1.4493,1.4491,1.45,1.4519,1.4523,1.4499,1.4498,1.4498,0,1.3951,1.4019,1.4062,1.4084,1.4147,1.4166,1.4193,1.4238,1.4266,1.4307,1.4326,1.4372,1.4398,1.4434,1.447,1.4466,1.4525,1.4528,1.4544,1.4543,1.4555,1.4554,1.4578,1.457,1.457,1.4569,1.4569,0,1.3972,1.4006,1.406,1.4086,1.4124,1.4162,1.42,1.4229,1.4269,1.4303,1.4331,1.4362,1.4408,1.4446,1.4474,1.4519,1.453,1.4548,1.4555,1.4546,1.4543,1.4562,1.4561,1.4571,1.457,1.457,1.457,0,1.3971,1.4008,1.4057,1.4112,1.4127,1.4153,1.4202,1.4229,1.4259,1.4301,1.4314,1.4362,1.4407,1.4447,1.4507,1.4527,1.4572,1.4581,1.4557,1.4561,1.4574,1.4573,1.4612,1.462,1.4605,1.4605,1.4605,0,1.3982,1.4008,1.4067,1.4091,1.4117,1.4156,1.4183,1.4222,1.425,1.4304,1.4325,1.4372,1.4412,1.4483,1.4525,1.4571,1.4582,1.4592,1.4589,1.4578,1.4582,1.458,1.4583,1.4592,1.4592,1.4592,1.4592,0,1.3998,1.4015,1.4053,1.4099,1.4131,1.4168,1.4207,1.4225,1.4271,1.4302,1.4348,1.4379,1.444,1.4487,1.4538,1.4568,1.4588,1.4593,1.4599,1.4589,1.4574,1.4583,1.4557,1.4592,1.4592,1.4592,1.4592,1.4592,1.4003,1.4028,1.4073,1.4116,1.4148,1.4184,1.4212,1.4246,1.4285,1.4337,1.4358,1.4405,1.4452,1.4522,1.4552,1.459,1.4594,1.4603,1.4605,1.4607,1.4605,1.4568,1.46,1.46,1.46,1.46,1.46,0,1.4021,1.4051,1.409,1.4142,1.4176,1.4191,1.4235,1.4262,1.4303,1.4344,1.4382,1.4436,1.4482,1.4527,1.4575,1.4597,1.4608,1.4609,1.4608,1.4614,1.4599,1.4589,1.46,1.46,1.46,1.46,1.46,1.46,1.4034,1.4077,1.41,1.416,1.4191,1.4236,1.426,1.4294,1.4326,1.4385,1.4423,1.4451,1.4494,1.4546,1.4589,1.4601,1.4618,1.4616,1.4631,1.4616,1.4615,1.4615,1.4606,1.462,1.462,1.4644,1.4644,1.4644]},{"header":{"parameterUnit":"m.s-1","parameterCategory":1,"la1":30.2991,"la2":30.254,"lo1":-89.0895,"lo2":-89.0444,"dy":0.0017,"dx":0.0017,"nx":28,"ny":28,"refTime":"2025-01-15T09:00:00:Z","depth":0,"parameterNumber":3,"parameterNumberName":"V-component_of_WINDS"},"data":[0,0,0,0,0,0,0,0,0,0,0,0,0,0,0,0,0,0,0,0,0,0,0,0,0,0,0,0,0,0,0,0,0,0,0,0,0,0,0,0,0,0,0,0,0,0,0,0,0,0,0,0,0,0,0,0,0,0,-0.0998,-0.0999,0,-0.1089,-0.109,-0.1091,-0.111,-0.1109,-0.1108,-0.1107,-0.1205,-0.1208,-0.1211,0,0,0,0,0,0,0,0,0,0,0,0,0,-0.0845,-0.0848,-0.0998,-0.0999,-0.1,-0.1089,-0.109,-0.1092,-0.111,-0.1109,-0.1108,-0.1107,-0.1204,-0.1207,-0.1211,0,0,0,0,0,0,0,0,0,0,0,0,0,-0.0922,-0.0849,-0.0998,-0.102,-0.1023,-0.1089,-0.1091,-0.1092,-0.111,-0.1109,-0.1108,-0.1107,-0.1202,-0.1207,-0.1212,-0.1264,0,0,-0.1227,-0.1229,0,0,0,0,0,0,0,0,-0.0917,-0.0927,-0.1016,-0.1019,-0.1022,-0.1087,-0.1072,-0.115,-0.111,-0.1077,-0.1107,-0.1106,-0.1167,-0.1174,-0.1194,-0.1268,-0.1272,-0.1227,-0.123,-0.1232,-0.1234,0,0,0,0,0,0,0,-0.0912,-0.0924,-0.1034,-0.1017,-0.1021,-0.1027,-0.1037,-0.1087,-0.1127,-0.108,-0.1081,-0.1092,-0.1168,-0.1189,-0.1196,-0.1274,-0.1227,-0.1231,-0.1234,-0.1236,-0.1399,-0.14,0,0,0,0,0,0,-0.0902,-0.0919,-0.1032,-0.1037,-0.0966,-0.1031,-0.1042,-0.1067,-0.1126,-0.1134,-0.1092,-0.1092,-0.1181,-0.1191,-0.12,-0.1267,-0.1232,-0.1237,-0.124,-0.1398,-0.1399,-0.1401,0,0,0,0,0,0,-0.0899,-0.0912,-0.1028,-0.0979,-0.0994,-0.1035,-0.1063,-0.107,-0.1091,-0.1136,-0.1144,-0.1106,-0.1181,-0.1193,-0.1248,-0.1271,-0.1239,-0.1243,-0.1396,-0.1398,-0.14,-0.14,0,0,0,0,0,0,-0.0894,-0.0911,-0.0929,-0.0979,-0.0996,-0.1073,-0.1064,-0.1072,-0.1099,-0.1099,-0.1151,-0.1159,-0.1181,-0.1241,-0.1253,-0.1277,-0.1247,-0.1394,-0.1397,-0.1399,-0.1399,-0.1402,-0.1405,0,0,0,0,0,-0.0889,-0.0926,-0.093,-0.0944,-0.102,-0.1074,-0.1084,-0.1108,-0.11,-0.1121,-0.115,-0.1157,-0.1266,-0.1246,-0.126,-0.1286,-0.1393,-0.1396,-0.1399,-0.1397,-0.1401,-0.1405,0,0,0,0,0,0,-0.0879,-0.0933,-0.0938,-0.0992,-0.1028,-0.1077,-0.1103,-0.1112,-0.1152,-0.1151,-0.118,-0.1192,-0.1246,-0.1271,-0.1249,-0.1341,-0.1329,-0.1335,-0.1323,-0.1327,-0.1331,-0.1325,-0.1251,0,0,0,0,0,-0.0882,-0.092,-0.0966,-0.1009,-0.1027,-0.1062,-0.1086,-0.1102,-0.1141,-0.1157,-0.119,-0.123,-0.1273,-0.1301,-0.1343,-0.1402,-0.1415,-0.1426,-0.143,-0.1432,-0.1438,-0.1474,-0.1481,-0.1411,-0.1411,-0.1411,0,0,-0.0891,-0.0925,-0.0947,-0.1008,-0.1038,-0.1079,-0.1075,-0.1117,-0.1149,-0.1164,-0.1219,-0.1245,-0.1291,-0.1348,-0.1376,-0.1371,-0.146,-0.1436,-0.1438,-0.1442,-0.1478,-0.1485,-0.1491,-0.1413,-0.1413,-0.1412,0,0,-0.0928,-0.0956,-0.0997,-0.1028,-0.1073,-0.1096,-0.1106,-0.1154,-0.1172,-0.1227,-0.124,-0.1279,-0.1352,-0.1385,-0.1412,-0.1464,-0.1473,-0.1477,-0.1495,-0.153,-0.1536,-0.1541,-0.1563,-0.157,-0.1482,-0.1482,-0.1482,0,-0.0934,-0.0994,-0.1017,-0.106,-0.1088,-0.1103,-0.1146,-0.1174,-0.1232,-0.1252,-0.1245,-0.1339,-0.1371,-0.1439,-0.1452,-0.1471,-0.1486,-0.1472,-0.1533,-0.1538,-0.1543,-0.1565,-0.1573,-0.1482,-0.1482,-0.1482,-0.1482,0,-0.1001,-0.1043,-0.107,-0.1125,-0.1156,-0.1198,-0.123,-0.1258,-0.1271,-0.1296,-0.1354,-0.1393,-0.1445,-0.1461,-0.1474,-0.1532,-0.1528,-0.1527,-0.1516,-0.155,-0.1571,-0.1579,-0.1483,-0.1483,-0.1482,-0.1482,0,0,-0.1034,-0.1102,-0.1112,-0.1139,-0.1191,-0.1225,-0.1269,-0.1319,-0.1345,-0.1384,-0.1424,-0.1487,-0.1487,-0.1517,-0.1534,-0.1564,-0.1608,-0.156,-0.1562,-0.157,-0.1678,-0.168,-0.1689,-0.1613,-0.1615,-0.1616,-0.1675,0,-0.108,-0.1159,-0.1182,-0.1249,-0.129,-0.1306,-0.1345,-0.1383,-0.1407,-0.1447,-0.1475,-0.152,-0.1515,-0.1534,-0.1564,-0.1596,-0.163,-0.1591,-0.1654,-0.1656,-0.1645,-0.1699,-0.1702,-0.1756,-0.1683,-0.1684,-0.1685,0,-0.1144,-0.1185,-0.1256,-0.1306,-0.1324,-0.1358,-0.1408,-0.1445,-0.1489,-0.1505,-0.1539,-0.1554,-0.1604,-0.1589,-0.166,-0.1634,-0.166,-0.168,-0.1683,-0.1692,-0.1674,-0.1713,-0.1773,-0.1782,-0.1697,-0.1696,-0.1695,0,-0.1165,-0.1238,-0.1291,-0.1313,-0.1371,-0.1396,-0.1421,-0.1464,-0.1494,-0.1537,-0.1557,-0.1606,-0.1633,-0.1672,-0.1701,-0.1686,-0.1771,-0.1757,-0.1789,-0.1788,-0.1808,-0.1806,-0.1876,-0.182,-0.1819,-0.1819,-0.1819,0,-0.1216,-0.126,-0.1302,-0.1334,-0.1385,-0.1412,-0.1462,-0.1489,-0.1527,-0.1568,-0.1583,-0.1621,-0.1656,-0.1699,-0.1722,-0.1779,-0.1791,-0.1807,-0.1814,-0.1808,-0.1806,-0.1828,-0.1826,-0.1821,-0.1821,-0.1821,-0.182,0,-0.1249,-0.1278,-0.1338,-0.1388,-0.1402,-0.1438,-0.1482,-0.1516,-0.1541,-0.1593,-0.1606,-0.1647,-0.1699,-0.1731,-0.1796,-0.1812,-0.1877,-0.188,-0.1862,-0.1865,-0.1896,-0.1894,-0.1984,-0.1999,-0.193,-0.193,-0.1931,0,-0.128,-0.1315,-0.1369,-0.1397,-0.1423,-0.1467,-0.1498,-0.1526,-0.1558,-0.1612,-0.164,-0.1693,-0.1737,-0.1819,-0.1856,-0.1908,-0.1914,-0.1942,-0.1922,-0.1916,-0.1919,-0.1918,-0.1923,-0.1946,-0.1947,-0.1948,-0.1948,0,-0.1334,-0.1348,-0.139,-0.1439,-0.1475,-0.1515,-0.1555,-0.1577,-0.1613,-0.1648,-0.1701,-0.1735,-0.1803,-0.1856,-0.1911,-0.194,-0.1952,-0.1954,-0.1964,-0.196,-0.195,-0.196,-0.1874,-0.1952,-0.1952,-0.1951,-0.1951,-0.1951,-0.137,-0.1403,-0.1447,-0.1495,-0.1528,-0.1565,-0.1601,-0.1631,-0.1675,-0.1732,-0.1747,-0.1803,-0.185,-0.1924,-0.1954,-0.2001,-0.1997,-0.2011,-0.2016,-0.202,-0.2023,-0.194,-0.2011,-0.201,-0.201,-0.201,-0.201,0,-0.1428,-0.1457,-0.1501,-0.1557,-0.1595,-0.1601,-0.1646,-0.1679,-0.1728,-0.1769,-0.1813,-0.1876,-0.1928,-0.1969,-0.2024,-0.2054,-0.2061,-0.2067,-0.2067,-0.2074,-0.2021,-0.2008,-0.2061,-0.2061,-0.2061,-0.2061,-0.2061,-0.2061,-0.1462,-0.1519,-0.1538,-0.1612,-0.1642,-0.1697,-0.1723,-0.1759,-0.1793,-0.1862,-0.1906,-0.1932,-0.1974,-0.2033,-0.2082,-0.2093,-0.2114,-0.2121,-0.2133,-0.2083,-0.2078,-0.2072,-0.2061,-0.2124,-0.2124,-0.2184,-0.2184,-0.2185]}]]